Location: Most
(50.5133°N, 13.6207°E)
Time: 12:37:57
(UTC+02:00)

N. Korean satellite - Visible Passes

Search period start: 21 September 2021 00:00
Search period end: 01 October 2021 00:00
Orbit: 448 x 498 km, 97.3° (Epoch: 20 September)

Date Brightness Start Highest point End Pass type
(mag) Time Alt. Az. Time Alt. Az. Time Alt. Az.
21 Sep 9.0 05:49:26 10° NE 05:52:26 26° E 05:55:27 10° SSE visible
22 Sep 9.8 05:22:38 10° ENE 05:24:28 13° E 05:26:18 10° ESE visible
24 Sep 8.5 05:59:11 10° NNE 06:02:26 33° E 06:05:42 10° SSE visible
25 Sep 9.7 05:32:03 10° NE 05:34:29 17° E 05:36:56 10° SE visible
27 Sep 7.9 06:08:57 10° NNE 06:12:22 43° E 06:15:49 10° S visible
28 Sep 9.3 05:41:35 10° NE 05:44:27 22° E 05:47:19 10° SSE visible
29 Sep 10.1 05:15:09 10° ENE 05:16:24 11° E 05:17:40 10° ESE visible
30 Sep 7.3 06:18:42 10° NNE 06:22:14 58° E 06:25:49 10° S visible
